sat.trackr.live / text

‹ back to catalog

STARLINK-31708

NORAD 59439 · 2024-065U

PAYLOAD ACTIVE UNKNOWN

§ Identity

Operator
Country
US
Launch date
2024-04-07
Launch site
AFWTR
Launch vehicle
Mass (kg)
RCS (m²)

Purposes: comms

External: N2YO · Heavens-Above · Gunter

§ Orbital elements

Epoch: 2026-09-21T21:47:14.698464Z

Period
93.85 min
Inclination
53.1592°
Eccentricity
0.0000829
Mean motion
15.34377413 rev/d
Perigee alt
462.2 km
Apogee alt
463.3 km
Semi-major
6,840.9 km
B*
1.1272e-4
RAAN
87.2545°
Arg perigee
112.3575°
Mean anomaly
247.7516°
Rev number
13,901

§ Raw data

STARLINK-317081 59439U 24065U   26264.90780901  .00003432  00000+0  11272-3 0  99982 59439  53.1592  87.2545 0000829 112.3575 247.7516 15.34377413139015

JSON: /api/v1/satellites/59439 · /tle

For live sub-satellite position, see the globe view (requires WebGL).

§ Visibility from observer

Set your observer location to see the next 7 days of passes ≥ 10°. The values pass through the URL so the page stays shareable.

No JS? Fill the form by hand. The geolocation button needs JavaScript.